Location: Glencliff
(36.1226°N, 86.7183°W)
Time: 20:31:18
(UTC+00:00)

CZ-3 Stage 3 - Pass Details

Date: 25 August 2019
Orbit: 237 x 16060 km, 30.8° (Epoch: 13 October)

Event Time Altitude Azimuth Distance (km) Brightness Sun altitude
Exits shadow 08:30:35 52° 238° (WSW) 2,149 3.8 -29.6°
Maximum altitude 08:33:24 70° 178° (S) 2,446 4.2 -29.2°
Drops below altitude 10° 09:22:32 10° 105° (ESE) 15,155 9.1 -21.3°
Sets 09:56:56 0° 107° (ESE) 19,925 9.9 -15.2°
